| time (UTC) | temp F | wind direction | speed MPH | gust MPH | rain 1hr in | rain 24hr in | rain mn in | humidity % | barometer mb |
| 20260903223703 | 93 | 152 | 6.0 | 12.0 | 0.00 | 0.00 | 0.00 | 54 | 1012.3 |
| 20260903220203 | 94 | 134 | 7.0 | 18.0 | 0.00 | 0.00 | 0.00 | 53 | 1012.4 |
| 20260903213702 | 95 | 154 | 6.0 | 13.0 | 0.00 | 0.00 | 0.00 | 54 | 1012.6 |
| 20260903213203 | 94 | 152 | 6.0 | 16.0 | 0.00 | 0.00 | 0.00 | 54 | 1012.6 |
| 20260903210703 | 95 | 171 | 6.0 | 12.0 | 0.00 | 0.00 | 0.00 | 52 | 1012.8 |
| 20260903210203 | 95 | 160 | 7.0 | 14.0 | 0.00 | 0.00 | 0.00 | 52 | 1012.9 |
| 20260903203702 | 95 | 142 | 5.0 | 12.0 | 0.00 | 0.00 | 0.00 | 51 | 1013.1 |
| 20260903203202 | 95 | 156 | 7.0 | 14.0 | 0.00 | 0.00 | 0.00 | 50 | 1013.2 |
| 20260903200703 | 95 | 143 | 7.0 | 12.0 | 0.00 | 0.00 | 0.00 | 51 | 1013.4 |
| 20260903193703 | 94 | 158 | 7.0 | 16.0 | 0.00 | 0.00 | 0.00 | 53 | 1013.6 |
| 20260903193203 | 94 | 158 | 7.0 | 14.0 | 0.00 | 0.00 | 0.00 | 52 | 1013.7 |
| 20260903190703 | 94 | 169 | 3.0 | 10.0 | 0.00 | 0.00 | 0.00 | 56 | 1014.0 |
| 20260903190203 | 94 | 166 | 6.0 | 14.0 | 0.00 | 0.00 | 0.00 | 54 | 1014.0 |
| 20260903183703 | 93 | 142 | 7.0 | 12.0 | 0.00 | 0.00 | 0.00 | 56 | 1014.5 |
| 20260903180703 | 93 | 158 | 6.0 | 12.0 | 0.00 | 0.00 | 0.00 | 56 | 1014.7 |
| 20260903180203 | 93 | 182 | 5.0 | 14.0 | 0.00 | 0.00 | 0.00 | 56 | 1014.8 |
| 20260903173703 | 92 | 158 | 4.0 | 13.0 | 0.00 | 0.00 | 0.00 | 60 | 1015.2 |
| 20260903173203 | 91 | 172 | 6.0 | 14.0 | 0.00 | 0.00 | 0.00 | 60 | 1015.2 |
| 20260903170704 | 90 | 170 | 5.0 | 9.0 | 0.00 | 0.00 | 0.00 | 62 | 1015.4 |
| 20260903170203 | 90 | 145 | 6.0 | 15.0 | 0.00 | 0.00 | 0.00 | 62 | 1015.6 |
| 20260903163703 | 88 | 148 | 6.0 | 12.0 | 0.00 | 0.00 | 0.00 | 64 | 1015.7 |
| 20260903163203 | 88 | 155 | 4.0 | 12.0 | 0.00 | 0.00 | 0.00 | 64 | 1015.8 |
| 20260903160703 | 87 | 164 | 4.0 | 10.0 | 0.00 | 0.00 | 0.00 | 67 | 1015.9 |
| 20260903153203 | 85 | 147 | 6.0 | 13.0 | 0.00 | 0.00 | 0.00 | 70 | 1016.1 |
| 20260903150703 | 83 | 190 | 5.0 | 10.0 | 0.00 | 0.00 | 0.00 | 72 | 1016.3 |
| 20260903150203 | 83 | 164 | 5.0 | 14.0 | 0.00 | 0.00 | 0.00 | 73 | 1016.3 |
| 20260903143703 | 82 | 167 | 6.0 | 12.0 | 0.00 | 0.00 | 0.00 | 73 | 1016.6 |
| 20260903143202 | 82 | 179 | 3.0 | 13.0 | 0.00 | 0.00 | 0.00 | 73 | 1016.6 |
| 20260903140703 | 81 | 154 | 6.0 | 12.0 | 0.00 | 0.00 | 0.00 | 75 | 1016.8 |
| 20260903140203 | 81 | 156 | 5.0 | 12.0 | 0.00 | 0.00 | 0.00 | 75 | 1016.9 |
| 20260903133702 | 79 | 151 | 7.0 | 12.0 | 0.00 | 0.00 | 0.00 | 76 | 1016.9 |
| 20260903133203 | 79 | 156 | 3.0 | 12.0 | 0.00 | 0.00 | 0.00 | 77 | 1016.8 |
| 20260903130703 | 77 | 150 | 3.0 | 7.0 | 0.00 | 0.00 | 0.00 | 79 | 1016.6 |
| 20260903130202 | 77 | 135 | 5.0 | 10.0 | 0.00 | 0.00 | 0.00 | 79 | 1016.6 |
| 20260903123703 | 76 | 170 | 3.0 | 5.0 | 0.00 | 0.00 | 0.00 | 81 | 1016.4 |
| 20260903123203 | 76 | 139 | 3.0 | 7.0 | 0.00 | 0.00 | 0.00 | 81 | 1016.3 |
| 20260903120703 | 76 | 149 | 2.0 | 5.0 | 0.00 | 0.00 | 0.00 | 80 | 1015.9 |
| 20260903120203 | 76 | 154 | 3.0 | 7.0 | 0.00 | 0.00 | 0.00 | 80 | 1015.8 |
| 20260903113703 | 76 | 161 | 3.0 | 6.0 | 0.00 | 0.00 | 0.00 | 79 | 1015.8 |
| 20260903113203 | 76 | 159 | 2.0 | 7.0 | 0.00 | 0.00 | 0.00 | 79 | 1015.7 |
| 20260903110703 | 77 | 126 | 5.0 | 7.0 | 0.00 | 0.00 | 0.00 | 78 | 1015.6 |
| 20260903110203 | 77 | 144 | 4.0 | 8.0 | 0.00 | 0.00 | 0.00 | 78 | 1015.4 |
| 20260903103702 | 78 | 163 | 2.0 | 5.0 | 0.00 | 0.00 | 0.00 | 77 | 1015.6 |
| 20260903103203 | 78 | 163 | 2.0 | 6.0 | 0.00 | 0.00 | 0.00 | 76 | 1015.6 |
| 20260903100703 | 78 | 159 | 3.0 | 5.0 | 0.00 | 0.00 | 0.00 | 75 | 1015.5 |
| 20260903093703 | 79 | 118 | 4.0 | 7.0 | 0.00 | 0.00 | 0.00 | 74 | 1015.5 |
| 20260903093203 | 79 | 135 | 3.0 | 9.0 | 0.00 | 0.00 | 0.00 | 73 | 1015.5 |
| 20260903090703 | 80 | 153 | 3.0 | 5.0 | 0.00 | 0.00 | 0.00 | 72 | 1015.4 |
| 20260903090203 | 80 | 163 | 2.0 | 6.0 | 0.00 | 0.00 | 0.00 | 72 | 1015.4 |
| 20260903083703 | 81 | 165 | 2.0 | 5.0 | 0.00 | 0.00 | 0.00 | 70 | 1015.5 |
| 20260903080204 | 82 | 167 | 2.0 | 6.0 | 0.00 | 0.00 | 0.00 | 68 | 1015.3 |
| 20260903070703 | 84 | 174 | 3.0 | 9.0 | 0.00 | 0.00 | 0.00 | 64 | 1015.4 |
| 20260903070203 | 84 | 156 | 3.0 | 12.0 | 0.00 | 0.00 | 0.00 | 64 | 1015.4 |
| 20260903063704 | 85 | 172 | 4.0 | 10.0 | 0.00 | 0.00 | 0.00 | 63 | 1015.2 |
| 20260903060702 | 85 | 161 | 5.0 | 10.0 | 0.00 | 0.00 | 0.00 | 61 | 1015.1 |
| 20260903060203 | 85 | 166 | 5.0 | 12.0 | 0.00 | 0.00 | 0.00 | 61 | 1015.2 |
| 20260903053703 | 85 | 166 | 5.0 | 10.0 | 0.00 | 0.00 | 0.00 | 59 | 1014.9 |
| 20260903053203 | 85 | 153 | 5.0 | 12.0 | 0.00 | 0.00 | 0.00 | 59 | 1014.9 |
| 20260903050703 | 85 | 160 | 3.0 | 6.0 | 0.00 | 0.00 | 0.00 | 58 | 1014.8 |
| 20260903043703 | 85 | 163 | 3.0 | 7.0 | 0.00 | 0.00 | 0.00 | 56 | 1014.7 |
| 20260903043203 | 86 | 164 | 4.0 | 7.0 | 0.00 | 0.00 | 0.00 | 56 | 1014.7 |
| 20260903040703 | 86 | 159 | 2.0 | 5.0 | 0.00 | 0.00 | 0.00 | 55 | 1014.8 |
| 20260903040203 | 86 | 157 | 2.0 | 6.0 | 0.00 | 0.00 | 0.00 | 54 | 1014.8 |
| 20260903033203 | 88 | 167 | 2.0 | 6.0 | 0.00 | 0.00 | 0.00 | 52 | 1014.7 |
| 20260903030703 | 88 | 150 | 4.0 | 8.0 | 0.00 | 0.00 | 0.00 | 51 | 1014.6 |
| 20260903030203 | 88 | 160 | 3.0 | 8.0 | 0.00 | 0.00 | 0.00 | 51 | 1014.6 |
| 20260903023702 | 89 | 144 | 2.0 | 3.0 | 0.00 | 0.00 | 0.00 | 50 | 1014.5 |
| 20260903020704 | 91 | 149 | 3.0 | 5.0 | 0.00 | 0.00 | 0.00 | 48 | 1014.2 |
| 20260903020203 | 91 | 149 | 3.0 | 7.0 | 0.00 | 0.00 | 0.00 | 47 | 1014.1 |
| 20260903013703 | 92 | 141 | 3.0 | 5.0 | 0.00 | 0.00 | 0.00 | 46 | 1013.8 |
| 20260903013203 | 92 | 138 | 3.0 | 8.0 | 0.00 | 0.00 | 0.00 | 46 | 1013.9 |
| 20260903010703 | 94 | 131 | 5.0 | 9.0 | 0.00 | 0.00 | 0.00 | 44 | 1013.6 |
| 20260903010204 | 94 | 135 | 4.0 | 9.0 | 0.00 | 0.00 | 0.00 | 44 | 1013.6 |
| 20260903003703 | 96 | 134 | 5.0 | 8.0 | 0.00 | 0.00 | 0.00 | 42 | 1013.6 |
| 20260903003203 | 96 | 152 | 4.0 | 10.0 | 0.00 | 0.00 | 0.00 | 41 | 1013.5 |
| 20260903000702 | 97 | 160 | 5.0 | 13.0 | 0.00 | 0.00 | 0.00 | 39 | 1013.5 |
| 20260903000204 | 97 | 129 | 6.0 | 13.0 | 0.00 | 0.00 | 0.00 | 39 | 1013.5 |
| 20260902233203 | 98 | 146 | 6.0 | 12.0 | 0.00 | 0.00 | 0.00 | 39 | 1013.5 |
| 20260902230703 | 99 | 165 | 6.0 | 12.0 | 0.00 | 0.00 | 0.00 | 39 | 1013.6 |
| 20260902230203 | 99 | 169 | 6.0 | 14.0 | 0.00 | 0.00 | 0.00 | 39 | 1013.6 |